Fort Lewis, WA

11:13 PM PDT on March 25, 2017 (GMT -0700)
Gray Army Air Field

Weather History for KGRF - November, 2011

Change the Weather History Date:

Wednesday, November 30, 2011

  Actual Average Record
Temperature  
Mean Temperature 38 °F -  
Max Temperature 46 °F 46 °F 57 °F (2012)
Min Temperature 29 °F 34 °F 16 °F (2014)
Degree Days  
Heating Degree Days 28    
Moisture  
Dew Point 38 °F    
Average Humidity 91    
Maximum Humidity 100    
Minimum Humidity 76    
Precipitation  
Precipitation 0.01 in - - ()
Sea Level Pressure  
Sea Level Pressure 30.56 in    
Wind  
Wind Speed 5 mph (NNE)    
Max Wind Speed 10 mph    
Max Gust Speed -    
Visibility 10 miles    
Events      
Averages and records for this station are not official NWS values.
T = Trace of Precipitation, MM = Missing Value Source: NWS Daily Summary

Daily Weather History Graph

Daily Weather History Graph

Search for Another Location

Airport or City:

Trip Planner

Search our weather history database for the weather conditions in past years. The results will help you decide how hot, cold, wet, or windy it might be!

Date:

Astronomy

Nov. 30, 2011 Rise Set
Actual Time 7:34 AM PST 4:23 PM PST
Civil Twilight 6:59 AM PST 4:58 PM PST
Nautical Twilight 6:21 AM PST 5:36 PM PST
Astronomical Twilight 5:44 AM PST 6:12 PM PST
Moon 11:42 AM PST (11/30) 10:40 PM PST (11/30)
Length of Visible Light 9h 58m
Length of Day
8h 49m
Waxing Crescent, 34% of the Moon is Illuminated
Nov 30
Waxing Crescent
Dec 2
First Quarter
Dec 10
Full
Dec 17
Last Quarter
Dec 24
New

Hourly Weather History & Observations

Time (PST) Temp. Windchill Dew Point Humidity Pressure Visibility Wind Dir Wind Speed Gust Speed Precip Events Conditions
12:00 AM 42.8 °F 37.0 °F 41.0 °F 93% 30.24 in 10.0 mi SSE 10.4 mph - N/A   Overcast
12:55 AM 41.0 °F 35.2 °F 39.6 °F 95% 30.25 in 10.0 mi SSE 9.2 mph - 0.00 in   Clear
1:38 AM 39.2 °F 33.6 °F 39.2 °F 100% 30.28 in 10.0 mi SE 8.1 mph - N/A   Mostly Cloudy
1:55 AM 40.6 °F 36.0 °F 39.6 °F 96% 30.29 in 10.0 mi SE 6.9 mph - N/A   Overcast
2:22 AM 41.0 °F 35.2 °F 39.2 °F 93% 30.31 in 10.0 mi SSE 9.2 mph - N/A   Light Drizzle
2:35 AM 41.0 °F 39.0 °F 41.0 °F 100% 30.32 in 10.0 mi NNW 3.5 mph - N/A   Mostly Cloudy
2:41 AM 41.0 °F - 39.2 °F 93% 30.32 in 10.0 mi Calm Calm - N/A   Light Drizzle
2:55 AM 40.6 °F - 39.6 °F 96% 30.33 in 10.0 mi Calm Calm - 0.00 in   Light Drizzle
3:00 AM 41.0 °F 39.0 °F 39.2 °F 93% 30.34 in 10.0 mi North 3.5 mph - N/A   Light Drizzle
3:23 AM 39.2 °F 37.0 °F 39.2 °F 100% 30.36 in 10.0 mi North 3.5 mph - N/A   Light Drizzle
3:55 AM 41.0 °F - 40.1 °F 97% 30.37 in 10.0 mi Calm Calm - 0.00 in   Light Drizzle
4:26 AM 41.0 °F 38.0 °F 41.0 °F 100% 30.41 in 10.0 mi NW 4.6 mph - N/A   Overcast
4:55 AM 41.4 °F - 40.6 °F 97% 30.42 in 10.0 mi Calm Calm - 0.00 in   Light Drizzle
5:06 AM 41.0 °F - 41.0 °F 100% 30.43 in 10.0 mi Calm Calm - N/A   Overcast
5:07 AM 41.0 °F - 41.0 °F 100% 30.43 in 10.0 mi Calm Calm - N/A   Light Drizzle
5:08 AM 41.0 °F - 41.0 °F 100% 30.43 in 10.0 mi Calm Calm - N/A   Overcast
5:09 AM 41.0 °F - 41.0 °F 100% 30.44 in 10.0 mi Calm Calm - N/A   Light Drizzle
5:55 AM 41.7 °F - 41.0 °F 97% 30.46 in 9.0 mi Calm Calm - 0.00 in   Light Drizzle
5:59 AM 41.0 °F - 41.0 °F 100% 30.46 in 10.0 mi Calm Calm - N/A   Light Drizzle
6:02 AM 42.8 °F - 41.0 °F 93% 30.46 in 10.0 mi Calm Calm - N/A   Overcast
6:14 AM 42.8 °F - 41.0 °F 93% 30.47 in 10.0 mi Calm Calm - N/A   Overcast
6:22 AM 41.0 °F - 41.0 °F 100% 30.47 in 10.0 mi Calm Calm - N/A   Light Drizzle
6:30 AM 41.0 °F - 41.0 °F 100% 30.47 in 10.0 mi Calm Calm - N/A   Light Drizzle
6:31 AM 41.0 °F - 41.0 °F 100% 30.47 in 10.0 mi Calm Calm - N/A   Overcast
6:37 AM 42.8 °F - 41.0 °F 93% 30.48 in 10.0 mi Calm Calm - N/A   Overcast
6:38 AM 41.0 °F - 41.0 °F 100% 30.48 in 10.0 mi Calm Calm - N/A   Light Drizzle
6:48 AM 41.0 °F 39.0 °F 41.0 °F 100% 30.48 in 10.0 mi NW 3.5 mph - N/A   Light Drizzle
6:55 AM 41.7 °F 39.8 °F 41.0 °F 97% 30.48 in 10.0 mi NNW 3.5 mph - 0.00 in   Overcast
7:08 AM 42.8 °F - 41.0 °F 93% 30.50 in 10.0 mi Calm Calm - N/A   Light Drizzle
7:16 AM 42.8 °F 41.1 °F 41.0 °F 93% 30.50 in 10.0 mi NW 3.5 mph - N/A   Light Drizzle
7:55 AM 43.0 °F 39.5 °F 41.2 °F 93% 30.52 in 10.0 mi North 5.8 mph - 0.00 in   Light Drizzle
8:03 AM 42.8 °F 38.6 °F 41.0 °F 93% 30.53 in 10.0 mi North 6.9 mph - N/A   Light Drizzle
8:43 AM 44.6 °F 40.2 °F 39.2 °F 81% 30.55 in 10.0 mi North 8.1 mph - N/A   Mostly Cloudy
8:44 AM 44.6 °F 39.7 °F 39.2 °F 81% 30.55 in 10.0 mi North 9.2 mph - N/A   Light Drizzle
8:55 AM 44.4 °F 41.2 °F 39.6 °F 83% 30.55 in 10.0 mi North 5.8 mph - 0.00 in   Light Drizzle
9:55 AM 45.9 °F 41.2 °F 39.0 °F 77% 30.59 in 10.0 mi North 9.2 mph - 0.00 in   Light Drizzle
10:12 AM 44.6 °F 40.7 °F 39.2 °F 81% 30.61 in 10.0 mi North 6.9 mph - N/A   Partly Cloudy
10:25 AM 46.4 °F 42.4 °F 39.2 °F 76% 30.61 in 10.0 mi North 8.1 mph - N/A   Light Drizzle
10:55 AM 45.9 °F 41.2 °F 39.0 °F 77% 30.62 in 10.0 mi North 9.2 mph - 0.00 in   Light Drizzle
11:00 AM 44.6 °F 40.2 °F 39.2 °F 81% 30.62 in 10.0 mi North 8.1 mph - N/A   Light Drizzle
11:03 AM 44.6 °F 40.7 °F 39.2 °F 81% 30.62 in 10.0 mi North 6.9 mph - N/A   Overcast
11:36 AM 44.6 °F 41.4 °F 39.2 °F 81% 30.63 in 10.0 mi North 5.8 mph - N/A   Light Drizzle
11:55 AM 44.8 °F 41.6 °F 38.7 °F 79% 30.64 in 10.0 mi North 5.8 mph - 0.00 in   Light Drizzle
12:28 PM 44.6 °F 41.4 °F 39.2 °F 81% 30.65 in 10.0 mi NNE 5.8 mph - N/A   Light Drizzle
12:55 PM 45.1 °F 43.7 °F 38.7 °F 78% 30.66 in 10.0 mi Variable 3.5 mph - 0.00 in   Light Drizzle
1:06 PM 44.6 °F 42.2 °F 39.2 °F 81% 30.67 in 10.0 mi NNE 4.6 mph - N/A   Light Drizzle
1:29 PM 44.6 °F 40.2 °F 39.2 °F 81% 30.67 in 10.0 mi NNE 8.1 mph - N/A   Overcast
1:55 PM 45.0 °F 42.6 °F 39.0 °F 80% 30.67 in 10.0 mi ENE 4.6 mph - 0.01 in   Overcast
2:01 PM 44.6 °F 40.7 °F 39.2 °F 81% 30.68 in 10.0 mi ENE 6.9 mph - N/A   Light Drizzle
2:55 PM 45.5 °F 40.8 °F 38.5 °F 76% 30.68 in 10.0 mi NNE 9.2 mph - N/A   Overcast
3:40 PM 44.6 °F 40.2 °F 37.4 °F 76% 30.69 in 10.0 mi NNE 8.1 mph - N/A   Scattered Clouds
3:55 PM 44.2 °F 41.0 °F 37.8 °F 78% 30.70 in 10.0 mi NNE 5.8 mph - N/A   Partly Cloudy
4:20 PM 42.8 °F 39.3 °F 37.4 °F 81% 30.70 in 10.0 mi NNE 5.8 mph - N/A   Clear
4:55 PM 41.5 °F 38.6 °F 37.0 °F 84% 30.71 in 10.0 mi North 4.6 mph - N/A   Clear
5:55 PM 40.8 °F - 36.0 °F 83% 30.74 in 10.0 mi North 2.3 mph - N/A   Clear
6:55 PM 34.0 °F - 32.5 °F 94% 30.75 in 10.0 mi Calm Calm - N/A   Clear
7:55 PM 33.6 °F 30.6 °F 31.8 °F 93% 30.75 in 10.0 mi SE 3.5 mph - N/A   Partly Cloudy
8:35 PM 33.8 °F 30.8 °F 32.0 °F 93% 30.76 in 10.0 mi SE 3.5 mph - N/A   Partly Cloudy
8:55 PM 33.8 °F 30.8 °F 32.9 °F 96% 30.76 in 10.0 mi SE 3.5 mph - N/A   Partly Cloudy
9:55 PM 31.6 °F - 30.6 °F 96% 30.76 in 10.0 mi Calm Calm - N/A   Clear
10:55 PM 29.8 °F 26.3 °F 28.8 °F 96% 30.79 in 10.0 mi East 3.5 mph - N/A   Clear
10:57 PM 30.2 °F 26.7 °F 28.4 °F 93% 30.79 in 10.0 mi East 3.5 mph - N/A   Clear
11:04 PM 32.0 °F - 30.2 °F 93% 30.79 in 10.0 mi Calm Calm - N/A   Light Drizzle
11:19 PM 30.2 °F - 30.2 °F 100% 30.79 in 10.0 mi Calm Calm - N/A   Clear
11:26 PM 30.2 °F - 30.2 °F 100% 30.79 in 10.0 mi Calm Calm - N/A   Light Freezing Rain
11:48 PM 32.0 °F - 30.2 °F 93% 30.81 in 10.0 mi Calm Calm - N/A   Clear
11:55 PM 31.3 °F - 30.6 °F 97% 30.81 in 9.0 mi Calm Calm - 0.00 in   Clear
11:56 PM 32.0 °F - 30.2 °F 93% 30.81 in 8.0 mi Calm Calm - N/A   Light Drizzle